Monterrey Gen Maria, Mexico

8:54 PM CDT on April 19, 2018 (GMT -0500)
Gen Mariano Escobedo International

Weather History for MMMY - December, 2012

Change the Weather History Date:

Tuesday, December 25, 2012

  Actual Average Record
Temperature  
Mean Temperature 72 °F -  
Max Temperature 93 °F 67 °F 93 °F (2012)
Min Temperature 51 °F 44 °F 23 °F (2004)
Cooling Degree Days 7    
Growing Degree Days 22 (Base 50)    
Moisture  
Dew Point 30 °F    
Average Humidity 32    
Maximum Humidity 88    
Minimum Humidity 4    
Precipitation  
Precipitation 0.00 in - - ()
Sea Level Pressure  
Sea Level Pressure 29.79 in    
Wind  
Wind Speed 8 mph ()    
Max Wind Speed 24 mph    
Max Gust Speed 24 mph    
Visibility 13.1 miles    
Events      
Averages and records for this station are not official NWS values.
T = Trace of Precipitation, MM = Missing Value Source: Averaged Metar Reports

Daily Weather History Graph

Daily Weather History Graph

Search for Another Location

Airport or City:

Astronomy

Dec. 25, 2012 Rise Set
Actual Time 7:24 AM CST 5:56 PM CST
Civil Twilight 6:59 AM CST 6:22 PM CST
Nautical Twilight 6:30 AM CST 6:50 PM CST
Astronomical Twilight 6:02 AM CST 7:19 PM CST
Moon 4:02 PM CST (12/25) 5:02 AM CST (12/25)
Length of Visible Light 11h 22m
Length of Day
10h 32m
Waxing Gibbous, 94% of the Moon is Illuminated
Dec 25
Waxing Gibbous
Dec 28
Full
Jan 4
Last Quarter
Jan 11
New
Jan 18
First Quarter

Hourly Weather History & Observations

Time (CST) Temp. Dew Point Humidity Pressure Visibility Wind Dir Wind Speed Gust Speed Precip Events Conditions
12:40 AM 60.8 °F 50.0 °F 68% 29.70 in 10.0 mi NW 6.9 mph - N/A   Scattered Clouds
1:42 AM 59.0 °F 51.8 °F 77% 29.71 in 8.0 mi WNW 9.2 mph - N/A   Mostly Cloudy
2:40 AM 57.2 °F 50.0 °F 77% 29.81 in 8.0 mi Calm Calm - N/A   Mostly Cloudy
3:40 AM 57.2 °F 50.0 °F 77% 29.68 in 8.0 mi NW 5.8 mph - N/A   Scattered Clouds
4:42 AM 55.4 °F 48.2 °F 77% 29.67 in 8.0 mi WNW 5.8 mph - N/A   Scattered Clouds
5:48 AM 51.8 °F 48.2 °F 88% 29.69 in 8.0 mi Calm Calm - N/A   Clear
6:45 AM 53.6 °F 50.0 °F 88% 29.65 in 10.0 mi Calm Calm - N/A   Clear
7:47 AM 66.2 °F 39.2 °F 37% 29.67 in 10.0 mi NW 10.4 mph - N/A   Scattered Clouds
8:10 AM 73.4 °F 33.8 °F 23% 29.70 in 15.0 mi NNW 13.8 mph - N/A   Scattered Clouds
8:38 AM 78.8 °F 28.4 °F 16% 29.71 in 15.0 mi NW 10.4 mph - N/A   Scattered Clouds
8:50 AM 80.6 °F 26.6 °F 14% 29.74 in 15.0 mi WNW 10.4 mph - N/A   Scattered Clouds
9:42 AM 84.2 °F 24.8 °F 11% 29.74 in 15.0 mi West 8.1 mph - N/A   Mostly Cloudy
10:31 AM 89.6 °F 21.2 °F 8% 29.75 in 15.0 mi WNW 12.7 mph - N/A   Mostly Cloudy
10:47 AM 87.8 °F 19.4 °F 8% 29.74 in 15.0 mi WNW 17.3 mph - N/A   Mostly Cloudy
11:45 AM 91.4 °F 17.6 °F 7% 29.66 in 15.0 mi NW 11.5 mph - N/A   Scattered Clouds
12:48 PM 91.4 °F 8.6 °F 5% 29.72 in 15.0 mi WNW 24.2 mph - N/A   Scattered Clouds
1:40 PM 93.2 °F -0.4 °F 4% 29.70 in 15.0 mi NNW 10.4 mph 24.2 mph N/A   Scattered Clouds
2:49 PM 91.4 °F 14.0 °F 6% 29.62 in 15.0 mi WNW 15.0 mph - N/A   Partly Cloudy
3:43 PM 82.4 °F 28.4 °F 14% 29.93 in 15.0 mi SE 12.7 mph - N/A   Clear
4:40 PM 78.8 °F 28.4 °F 16% 29.77 in 15.0 mi SE 10.4 mph - N/A   Clear
5:40 PM 75.2 °F 28.4 °F 18% 29.83 in 15.0 mi South 4.6 mph - N/A   Clear
6:40 PM 69.8 °F 30.2 °F 23% 29.88 in 15.0 mi SW 9.2 mph - N/A   Clear
7:40 PM 68.0 °F 26.6 °F 21% 29.93 in 15.0 mi West 8.1 mph - N/A   Clear
8:48 PM 66.2 °F 17.6 °F 15% 30.11 in 15.0 mi NNW 18.4 mph - N/A   Clear
9:44 PM 60.8 °F 19.4 °F 20% 30.01 in 15.0 mi NNW 13.8 mph - N/A   Clear
10:47 PM 57.2 °F 19.4 °F 23% 30.05 in 15.0 mi NW 20.7 mph - N/A   Clear
11:46 PM 55.4 °F 19.4 °F 25% 30.10 in 15.0 mi NW 20.7 mph - N/A   Clear